Location: Bleichheim
(48.2079°N, 7.8311°E)
Time: 05:47:24
(UTC+00:00)

Daily predictions for brighter satellites

Satellite Brightness Start Highest point End
(mag) Time Altitude Azimuth Time Altitude Azimuth Time Altitude Azimuth
USA 234 4.5 02:18:20 10° E 02:22:27 36° ENE 02:22:27 36° ENE
ACS3 Solar Sail 3.7 02:21:59 10° NNE 02:24:02 22° NNE 02:24:02 22° NNE
Cosmos 1802 Rocket 4.5 03:00:31 10° N 03:06:47 57° ENE 03:12:54 10° SSE
COSMOS 2428 4.1 03:21:07 30° NNE 03:21:07 30° NNE 03:23:58 10° NNE
Meteor 2-5 Rocket 4.2 03:19:35 60° E 03:19:35 60° E 03:25:10 10° NNE
Cosmos 1980 4.2 03:22:37 56° ENE 03:22:37 56° ENE 03:27:15 10° NNE
CZ-2C R/B 3.4 03:17:28 10° NNE 03:21:32 46° ENE 03:21:32 46° ENE
Cosmos 2123 Rocket 4.1 03:24:38 62° SE 03:25:28 70° E 03:31:37 10° NNE
USA 267 3.7 03:23:22 10° ENE 03:29:46 55° SE 03:31:26 44° S
Cosmos 2016 Rocket 4.2 03:24:02 10° N 03:30:26 71° E 03:36:44 10° SSE
Cosmos 2278 Rocket 4.2 03:37:43 16° S 03:37:43 16° S 03:38:52 10° S
Cosmos 1190 Rocket 4.5 03:34:26 57° NE 03:34:38 58° ENE 03:39:46 10° SE
NOSS 3-1 (A) 3.5 03:37:27 53° NNE 03:37:27 53° NNE 03:42:00 10° NE
Cosmos 1943 Rocket 4.4 03:41:44 12° S 03:41:44 12° S 03:42:10 10° S
Cosmos 2237 Rocket 2.2 03:37:33 74° ENE 03:37:33 74° ENE 03:42:46 10° NNE
ARGOS 3.3 03:35:42 10° NNE 03:40:21 66° NNE 03:40:21 66° NNE
CENTAUR R/B 3.9 03:39:59 26° NNW 03:44:34 51° NE 03:53:30 10° ESE
Cosmos 2369 Rocket 3.7 03:41:31 17° N 03:45:08 33° NE 03:50:14 10° ESE
Cosmos 1954 Rocket 4.3 03:47:44 47° N 03:48:58 62° ENE 03:54:04 10° SE
Cosmos 2360 Rocket 4.4 03:52:38 12° N 03:52:38 12° N 03:53:31 10° N
Orbus 7S? 4.0 03:51:03 65° ESE 03:51:03 65° ESE 03:54:08 10° ENE
SJ 16-02 2.0 03:51:39 51° ENE 03:51:39 51° ENE 03:55:46 10° SE
Meteor 2-16 Rocket 4.3 03:50:08 28° S 03:53:32 87° W 03:59:43 10° N
Cosmos 2322 Rocket 4.4 03:57:46 11° N 03:57:46 11° N 03:58:29 10° N
ADEOS Rocket 3.7 03:50:19 10° N 03:55:46 43° NW 03:55:46 43° NW
Cosmos 2333 Rocket 4.5 03:59:30 11° NNW 03:59:30 11° NNW 04:00:06 10° N
COSMO-SKYMED 1 4.5 03:56:31 10° ESE 03:59:58 27° ENE 04:03:27 10° N
USA 234 3.2 04:00:38 10° ESE 04:07:13 87° NE 04:09:48 41° NW
ACS3 Solar Sail 3.0 04:05:16 10° N 04:08:09 25° NNW 04:08:09 25° NNW
Cosmos 371 Rocket 3.3 04:11:28 38° NNW 04:13:18 78° ENE 04:18:08 10° SSE
USA 306 3.4 04:15:46 41° ENE 04:15:46 41° ENE 04:18:24 10° ENE
CZ-3 R/B 4.2 04:06:00 12° SW 04:16:27 22° S 04:22:14 10° SE
Cosmos 2292 Rocket 4.1 04:16:36 34° SSW 04:18:54 65° WNW 04:25:18 10° N
Cosmos 304 Rocket 3.6 04:20:02 41° NNW 04:21:43 87° WSW 04:26:29 10° SSE
Meteor 1-24 Rocket 4.2 04:23:19 38° NW 04:23:19 38° NW 04:27:32 10° N
Cosmos 2061 Rocket 3.8 04:16:13 10° NNW 04:22:24 75° W 04:28:34 10° S
Cosmos 1400 Rocket 4.5 04:19:40 10° N 04:23:00 30° ENE 04:26:17 10° SE
Gbstr 26 Del rocket 3.7 04:22:01 47° NW 04:23:11 59° N 04:29:07 10° E
Cosmos 1656 Rocket 3.6 04:20:08 28° NNW 04:23:16 85° WSW 04:28:56 10° SSE
Lacrosse 5 rocket 2.5 04:23:30 25° NNE 04:23:30 25° NNE 04:26:22 10° ENE
Lacrosse 4 Rocket 3.9 04:22:33 10° N 04:24:36 13° NE 04:26:38 10° ENE
Cosmos 2219 Rocket 4.2 04:26:24 13° NNW 04:26:24 13° NNW 04:28:12 10° N
Aureole 3 Rocket 4.1 04:22:50 10° N 04:27:54 73° E 04:35:00 10° SSE
Cosmos 1725 Rocket 4.3 04:24:42 10° NNW 04:30:35 42° W 04:36:25 10° SSW
Cosmos 1869 2.8 04:31:07 83° SW 04:31:07 83° SW 04:34:31 10° S
Cosmos 2233 Rocket 4.0 04:26:48 10° NNW 04:32:58 57° W 04:39:02 10° S
Helios 1A Rocket 2.5 04:33:54 10° SSE 04:37:15 73° ENE 04:38:59 26° N
Cosmos 2251 Rocket 3.9 04:36:55 38° W 04:37:25 39° WSW 04:42:22 10° S
NOSS 3-1 (C) 4.3 04:37:44 24° NW 04:38:47 25° NNW 04:43:56 10° NE
Cosmos 1447 Rocket 4.4 04:32:38 10° S 04:38:55 86° W 04:45:17 10° N
NOSS 8 (A) 4.5 04:38:31 46° SW 04:39:34 78° NW 04:42:56 10° NE
Cosmos 1378 Rocket 4.2 04:35:52 10° S 04:40:01 55° E 04:44:13 10° NNE
Cosmos 1420 Rocket 4.2 04:37:58 32° WSW 04:40:02 50° WNW 04:45:12 10° NNE
Cosmos 1624 Rocket 3.8 04:34:55 10° SSW 04:40:05 79° WNW 04:45:18 10° NNE
SL-16 R/B 2.3 04:34:45 10° SSW 04:40:25 76° ESE 04:46:08 10° NNE
Cosmos 2242 Rocket 3.5 04:37:42 10° S 04:42:04 90° SW 04:46:33 10° N
PAYLOAD A 4.4 04:38:08 10° N 04:43:09 42° WNW 04:45:44 25° WSW
SL-08 RB Rocket 4.4 04:40:29 10° N 04:44:00 33° NW 04:44:00 33° NW
Cosmos 1812 1.7 04:46:27 81° WNW 04:46:30 81° W 04:49:23 10° S
Cosmos 2346 Rocket 4.3 04:45:07 10° SSW 04:51:13 68° WNW 04:57:18 10° N
CZ-2C R/B 3.4 04:56:04 10° N 05:00:11 26° WNW 05:00:45 25° WNW
Cosmos 1850 Rocket 4.2 04:55:21 10° NNW 05:00:32 74° ENE 05:05:41 10° SSE
Cosmos 1939 Rocket 3.6 04:58:08 10° N 05:01:05 28° NW 05:01:05 28° NW
COSMOS 2428 4.3 05:03:07 16° NW 05:03:40 17° NW 05:07:15 10° N
Cosmos 2084 4.4 05:03:54 14° NNW 05:07:03 39° NE 05:10:50 10° ESE
Cosmos 1331 Rocket 4.3 05:04:58 10° SSW 05:10:12 73° ESE 05:15:25 10° NNE
USA 229 DEB 3.5 05:06:00 10° SW 05:11:56 86° SE 05:18:40 10° NE
USA 229 3.5 05:06:14 10° SW 05:12:09 85° SE 05:18:53 10° NE
Cosmos 2263 4.2 05:06:59 10° NNW 05:12:48 87° WSW 05:18:33 10° SSE
USA 267 3.3 05:06:26 10° NE 05:12:53 64° NNW 05:18:48 13° WSW
NOSS 3-2 (A) 4.3 05:06:31 11° NW 05:13:31 67° NE 05:22:09 10° SE
Meteor 1-11 4.5 05:09:15 10° S 05:15:05 78° E 05:20:57 10° NNE
Cosmos 1072 Rocket 4.4 05:10:42 10° NNW 05:16:49 79° W 05:22:59 10° S
Cosmos 2237 Rocket 3.4 05:19:25 18° WNW 05:21:50 23° NW 05:26:14 10° N
Okean 2 Rocket 3.0 05:19:31 10° NNW 05:23:55 78° W 05:28:16 10° S
Cosmos 2297 3.8 05:18:25 10° NW 05:23:57 58° WSW 05:29:26 10° S
NOSS 3-1 (A) 4.4 05:24:50 16° WNW 05:27:58 26° NNW 05:33:12 10° NE
Cosmos 2056 Rocket 4.2 05:24:11 10° WSW 05:29:05 34° WNW 05:33:59 10° N
SJ 16-02 2.7 05:28:15 16° WNW 05:29:19 18° W 05:32:10 10° SW
Cosmos 2369 Rocket 2.4 05:23:53 10° NW 05:29:23 51° WSW 05:34:52 10° S
SKYMED 2 4.5 05:26:11 10° SSW 05:29:56 28° W 05:33:43 10° NW
Cosmos 1943 3.5 05:25:46 10° SSW 05:31:20 71° ESE 05:36:56 10° NNE
ATLAS 3B R/B 3.0 05:25:47 10° SW 05:33:23 75° NW 05:41:20 10° NE
COSMO-SKYMED 1 3.2 05:31:29 10° SSW 05:35:12 32° W 05:38:56 10° NNW
CENTAUR R/B 3.4 05:27:30 10° NW 05:35:44 64° WSW 05:45:01 10° SSE
IRS-1D 4.1 05:33:25 10° N 05:37:48 32° WNW 05:42:08 10° SW
Cosmos 292 Rocket 4.0 05:37:00 10° NNW 05:41:50 75° ENE 05:46:35 10° SSE
USA 306 3.2 05:41:00 13° WNW 05:43:40 37° N 05:47:21 10° ENE
BREEZE-M DEB (TANK) 3.4 05:41:34 10° SW 05:44:09 42° SSE 05:49:17 10° E
Cosmos 1025 Rocket 3.0 05:40:32 10° SSW 05:44:50 61° WNW 05:49:11 10° N
BREEZE-M DEB (TANK) 4.0 05:34:53 10° W 05:44:59 67° SSW 05:48:37 10° ESE
Cosmos 1674 Rocket 4.0 05:45:48 10° SW 05:49:58 40° WNW 05:54:10 10° N
USA 234 4.1 05:44:53 10° SSE 05:50:42 33° SW 05:56:32 10° WNW
Cosmos 968 Rocket 4.2 05:46:44 10° NW 05:51:27 35° WSW 05:56:09 10° SSW
Cosmos 1741 Rocket 4.4 05:49:33 10° NW 05:54:34 44° WSW 05:59:34 10° S
Cosmos 1400 Rocket 3.9 05:55:30 10° NW 05:58:17 20° W 06:01:02 10° SW
Cosmos 1484 Rocket 3.2 05:55:47 10° N 05:59:00 33° WNW 06:02:12 10° SW
Cosmos 2221 Rocket 3.9 05:55:45 10° SSW 06:00:08 49° WNW 06:04:33 10° N
NOSS 2-2 (E) 3.7 05:56:52 10° NW 06:00:40 81° NE 06:05:53 10° SE
Lacrosse 5 rocket 0.8 05:57:29 10° NW 06:00:51 78° SW 06:04:08 10° SE
Lacrosse 4 Rocket 1.4 05:59:12 10° NNW 06:03:11 75° ENE 06:07:05 10° SE
Cosmos 1110 Rocket 4.4 05:59:47 10° SW 06:04:47 41° WNW 06:09:49 10° NNE
Tsikada Rocket 4.1 05:59:03 10° S 06:05:23 89° W 06:11:50 10° N
